GW6547 Weather Reports


time (UTC)temp
C
wind
direction
speed
KPH
gust
KPH
rain 1hr
cm
rain 24hr
cm
rain mn
cm
humidity
%
barometer
mb
20260906082917 21 185 0.0 0.0 0.00 0.00 0.00 99 1011.4
20260906082413 21 183 0.0 0.0 0.00 0.00 0.00 99 1011.0
20260906081909 21 180 0.0 0.0 0.00 0.00 0.00 99 1011.2
20260906081404 21 183 0.0 0.0 0.00 0.00 0.00 99 1011.3
20260906080900 21 187 0.0 0.0 0.00 0.00 0.00 99 1011.1
20260906080356 21 183 0.0 0.0 0.00 0.00 0.00 99 1010.9
20260906075855 21 180 0.0 0.0 0.00 0.00 0.00 99 1010.8
20260906075350 21 185 0.0 0.0 0.00 0.00 0.00 99 1011.0
20260906074846 21 181 0.0 0.0 0.00 0.00 0.00 99 1011.1
20260906074345 21 180 0.0 0.0 0.00 0.00 0.00 99 1010.7
20260906073844 21 185 0.0 0.0 0.00 0.00 0.00 99 1010.7
20260906073339 21 188 0.0 0.0 0.00 0.00 0.00 99 1010.8
20260906072836 21 185 0.0 0.0 0.00 0.00 0.00 99 1010.9
20260906072331 21 185 0.0 0.0 0.00 0.00 0.00 99 1010.9
20260906071827 21 186 0.0 0.0 0.00 0.00 0.00 99 1010.7
20260906071328 21 184 0.0 0.0 0.00 0.00 0.00 99 1011.0
20260906070824 21 186 0.0 0.0 0.00 0.00 0.00 99 1011.2
20260906070319 22 188 0.0 0.0 0.00 0.00 0.00 99 1011.0
20260906065814 22 185 0.0 0.0 0.00 0.00 0.00 99 1010.9
20260906065309 22 180 0.0 0.0 0.00 0.00 0.00 99 1010.9
20260906064805 22 183 0.0 0.0 0.00 0.00 0.00 99 1010.8
20260906064301 22 191 0.0 0.0 0.00 0.00 0.00 99 1011.0
20260906063755 22 192 0.0 0.0 0.00 0.00 0.00 98 1011.0
20260906063251 22 189 0.0 0.0 0.00 0.00 0.00 98 1011.2
20260906062746 22 180 0.0 0.0 0.00 0.00 0.00 98 1011.3
20260906062245 22 185 0.0 0.0 0.00 0.00 0.00 98 1011.2
20260906061741 22 185 0.0 0.0 0.00 0.00 0.00 97 1011.2
20260906061237 22 188 0.0 0.0 0.00 0.00 0.00 97 1011.3
20260906060732 22 188 0.0 0.0 0.00 0.00 0.00 97 1011.3
20260906060230 22 187 0.0 0.0 0.00 0.00 0.00 97 1011.5
20260906055725 22 189 0.0 0.0 0.00 0.00 0.00 97 1011.4
20260906055220 22 189 0.0 0.0 0.00 0.00 0.00 97 1011.6
20260906054715 22 188 0.0 0.0 0.00 0.00 0.00 96 1011.6
20260906054216 22 186 0.0 0.0 0.00 0.00 0.00 96 1011.7
20260906053713 22 182 0.0 0.0 0.00 0.00 0.00 96 1011.5
20260906053208 22 183 0.0 0.0 0.00 0.00 0.00 96 1011.6
20260906052703 22 187 0.0 0.0 0.00 0.00 0.00 96 1011.7
20260906052159 22 193 0.0 0.0 0.00 0.00 0.00 96 1012.0
20260906051656 22 188 0.0 0.0 0.00 0.00 0.00 96 1011.9
20260906051155 22 187 0.0 0.0 0.00 0.00 0.00 96 1012.0
20260906050651 22 185 0.0 0.0 0.00 0.00 0.00 96 1012.0
20260906050145 22 187 0.0 0.0 0.00 0.00 0.00 96 1012.1
20260906045644 22 191 0.0 0.0 0.00 0.00 0.00 96 1011.9
20260906045139 22 192 0.0 0.0 0.00 0.00 0.00 96 1011.9
20260906044635 22 187 0.0 0.0 0.00 0.00 0.00 96 1012.1
20260906044130 22 191 0.0 0.0 0.00 0.00 0.00 95 1011.9
20260906043627 22 182 0.0 0.0 0.00 0.00 0.00 95 1012.0
20260906043122 22 184 0.0 0.0 0.00 0.00 0.00 95 1012.3
20260906042621 22 187 0.0 0.0 0.00 0.00 0.00 95 1012.3
20260906042115 22 185 0.0 0.0 0.00 0.00 0.00 94 1012.4
20260906041612 22 189 0.0 0.0 0.00 0.00 0.00 94 1012.6
20260906041112 22 184 0.0 0.0 0.00 0.00 0.00 94 1012.3
20260906040607 22 190 0.0 0.0 0.00 0.00 0.00 94 1012.1
20260906035558 22 185 0.0 0.0 0.00 0.00 0.00 95 1012.5
20260906035054 22 188 0.0 0.0 0.00 0.00 0.00 95 1012.5
20260906034553 22 188 0.0 0.0 0.00 0.00 0.00 94 1012.3
20260906034048 22 190 0.0 0.0 0.00 0.00 0.00 95 1012.3
20260906033543 22 188 0.0 0.0 0.00 0.00 0.00 95 1012.4
20260906033039 22 190 0.0 0.0 0.00 0.00 0.00 96 1012.4
20260906032536 22 192 0.0 0.0 0.00 0.00 0.00 96 1012.6
20260906032030 22 187 0.0 0.0 0.00 0.00 0.00 96 1012.5
20260906031526 22 187 0.0 0.0 0.00 0.00 0.00 95 1012.6
20260906031021 22 189 0.0 0.0 0.00 0.00 0.00 95 1012.5
20260906030520 22 188 0.0 0.0 0.00 0.00 0.00 95 1012.5
20260906030020 22 191 0.0 0.0 0.00 0.00 0.00 95 1012.2
20260906025520 22 184 0.0 0.0 0.00 0.00 0.00 94 1012.4
20260906025018 22 195 0.0 0.0 0.00 0.00 0.00 94 1012.2
20260906024514 22 187 0.0 0.0 0.00 0.00 0.00 94 1012.5
20260906024013 22 184 0.0 0.0 0.00 0.00 0.00 93 1012.5
20260906023510 22 184 0.0 0.0 0.00 0.00 0.00 93 1012.1
20260906023004 22 181 0.0 0.0 0.00 0.00 0.00 93 1012.2
20260906022459 23 183 0.0 0.0 0.00 0.00 0.00 92 1012.3
20260906021955 23 184 0.0 0.0 0.00 0.00 0.00 92 1012.4
20260906021449 23 184 0.0 0.0 0.00 0.00 0.00 91 1012.2
20260906020944 23 189 0.0 0.0 0.00 0.00 0.00 91 1012.1
20260906020439 23 186 0.0 0.0 0.00 0.00 0.00 91 1012.2
20260906015933 23 185 0.0 0.0 0.00 0.00 0.00 91 1012.1
20260906015432 23 182 1.6 1.6 0.00 0.00 0.00 91 1012.4
20260906014932 23 180 0.0 0.0 0.00 0.00 0.00 90 1012.0
20260906014432 23 186 0.0 0.0 0.00 0.00 0.00 90 1011.9
20260906013928 23 187 0.0 0.0 0.00 0.00 0.00 89 1012.2
20260906013423 23 192 0.0 0.0 0.00 0.00 0.00 89 1012.1
20260906012919 23 189 0.0 0.0 0.00 0.00 0.00 89 1011.9
20260906012414 23 190 0.0 0.0 0.00 0.00 0.00 90 1012.0
20260906011913 23 186 0.0 0.0 0.00 0.00 0.00 90 1012.0
20260906011408 23 191 0.0 0.0 0.00 0.00 0.00 90 1011.6
20260906010904 23 179 0.0 0.0 0.00 0.00 0.00 89 1011.9
20260906010359 23 187 0.0 0.0 0.00 0.00 0.00 88 1011.6
20260906005855 23 185 0.0 0.0 0.00 0.00 0.00 89 1011.8
20260906005354 23 188 0.0 0.0 0.00 0.00 0.00 88 1011.9
20260906004853 23 188 0.0 0.0 0.00 0.00 0.00 88 1011.6
20260906004353 23 192 0.0 0.0 0.00 0.00 0.00 88 1011.5
20260906003848 23 185 0.0 0.0 0.00 0.00 0.00 87 1011.8
20260906003343 23 185 0.0 0.0 0.00 0.00 0.00 87 1011.6
20260906002839 24 184 0.0 0.0 0.00 0.00 0.00 87 1011.5
20260906002338 24 184 0.0 0.0 0.00 0.00 0.00 86 1011.5
20260906001834 24 188 0.0 0.0 0.00 0.00 0.00 86 1011.5
20260906001329 25 191 0.0 0.0 0.00 0.00 0.00 85 1011.2
20260906000824 25 187 0.0 0.0 0.00 0.00 0.00 84 1011.4
20260906000319 25 197 0.0 0.0 0.00 0.00 0.00 83 1011.4
20260905235814 25 184 0.0 0.0 0.00 0.00 0.00 82 1011.4
20260905235314 25 197 0.0 0.0 0.00 0.00 0.00 81 1011.0
20260905234809 25 192 0.0 0.0 0.00 0.00 0.00 80 1011.0
20260905221320 28 106 3.2 3.2 0.00 0.00 0.00 70 1010.6
20260905220815 28 106 3.2 3.2 0.00 0.00 0.00 70 1010.6
20260905220312 28 133 1.6 3.2 0.00 0.00 0.00 71 1010.7
20260905215810 28 101 3.2 3.2 0.00 0.00 0.00 73 1010.9
20260905215306 28 165 0.0 0.0 0.00 0.00 0.00 72 1010.7
20260905214738 27 171 1.6 1.6 0.00 0.00 0.00 74 1010.9
20260905214234 27 171 1.6 1.6 0.00 0.00 0.00 74 1010.9
20260905213729 27 166 0.0 0.0 0.00 0.00 0.00 75 1010.9
20260905213225 27 161 1.6 1.6 0.00 0.00 0.00 74 1011.0
20260905212720 27 162 0.0 0.0 0.00 0.00 0.00 76 1011.3
20260905212219 26 174 0.0 0.0 0.00 0.00 0.00 75 1011.7
20260905211720 26 186 0.0 0.0 0.00 0.00 0.00 79 1011.7
20260905211215 26 184 0.0 0.0 0.00 0.00 0.00 79 1011.8
20260905210712 26 182 0.0 0.0 0.00 0.00 0.00 80 1011.8
20260905210211 26 184 0.0 0.0 0.00 0.00 0.00 80 1011.7
20260905205710 26 181 0.0 0.0 0.00 0.00 0.00 80 1011.7
20260905205210 26 185 0.0 0.0 0.00 0.00 0.00 80 1011.9
20260905204710 26 179 0.0 0.0 0.00 0.00 0.00 77 1011.6
20260905204206 26 183 0.0 0.0 0.00 0.00 0.00 76 1011.5
20260905203705 26 157 0.0 1.6 0.00 0.00 0.00 77 1011.9
20260905203201 26 176 0.0 0.0 0.00 0.00 0.00 78 1011.4
20260905202657 26 176 0.0 0.0 0.00 0.00 0.00 80 1011.1
20260905202152 26 163 0.0 1.6 0.00 0.00 0.00 80 1011.0
20260905201648 27 177 0.0 0.0 0.00 0.00 0.00 80 1011.4
20260905201147 26 140 0.0 0.0 0.00 0.00 0.00 78 1011.3
20260905200642 26 83 3.2 3.2 0.00 0.00 0.00 78 1011.2
20260905200138 26 181 0.0 0.0 0.00 0.00 0.00 79 1011.5
20260905195636 26 180 0.0 1.6 0.00 0.00 0.00 78 1011.5
20260905195132 26 192 1.6 3.2 0.00 0.00 0.00 78 1011.5
20260905194632 26 19 1.6 3.2 0.00 0.00 0.00 78 1011.3
20260905194131 26 53 3.2 4.8 0.00 0.00 0.00 78 1011.3
20260905193626 27 178 1.6 1.6 0.00 0.00 0.00 78 1011.4
20260905193121 27 187 1.6 3.2 0.00 0.00 0.00 77 1011.5
20260905192617 27 62 3.2 3.2 0.00 0.00 0.00 76 1011.2
20260905192113 27 171 1.6 1.6 0.00 0.00 0.00 76 1011.4
20260905191611 27 222 1.6 3.2 0.00 0.00 0.00 74 1011.5
20260905191110 29 123 1.6 1.6 0.00 0.00 0.00 70 1011.3
20260905190609 30 131 1.6 3.2 0.00 0.00 0.00 64 1011.2
20260905185602 35 152 4.8 8.0 0.00 0.00 0.00 54 1011.1
20260905185101 35 100 0.0 1.6 0.00 0.00 0.00 53 1011.0
20260905184556 35 142 1.6 1.6 0.00 0.00 0.00 51 1011.0
20260905184055 35 184 1.6 3.2 0.00 0.00 0.00 50 1011.1
20260905183555 35 253 3.2 3.2 0.00 0.00 0.00 49 1011.3
20260905183051 35 67 4.8 8.0 0.00 0.00 0.00 51 1011.2
20260905182550 36 184 0.0 0.0 0.00 0.00 0.00 50 1011.0
20260905182050 36 68 4.8 8.0 0.00 0.00 0.00 50 1011.1
20260905181545 36 222 3.2 8.0 0.00 0.00 0.00 51 1011.2
20260905181045 36 202 0.0 1.6 0.00 0.00 0.00 54 1011.3
20260905180544 36 151 3.2 3.2 0.00 0.00 0.00 53 1011.4
20260905180040 35 193 1.6 1.6 0.00 0.00 0.00 52 1011.4
20260905175539 36 55 4.8 8.0 0.00 0.00 0.00 50 1011.6
20260905175035 36 193 0.0 0.0 0.00 0.00 0.00 51 1011.5
20260905174530 35 196 0.0 1.6 0.00 0.00 0.00 50 1011.9
20260905174026 35 202 1.6 1.6 0.00 0.00 0.00 53 1012.1
20260905173522 35 174 1.6 1.6 0.00 0.00 0.00 51 1011.9
20260905173017 35 180 3.2 3.2 0.00 0.00 0.00 52 1012.3
20260905172515 35 214 1.6 3.2 0.00 0.00 0.00 53 1012.3
20260905172011 35 199 0.0 0.0 0.00 0.00 0.00 55 1012.5
20260905171508 35 191 0.0 0.0 0.00 0.00 0.00 56 1012.4
20260905171004 34 174 0.0 0.0 0.00 0.00 0.00 58 1012.4
20260905170500 34 161 0.0 1.6 0.00 0.00 0.00 56 1012.6
20260905170000 35 193 0.0 1.6 0.00 0.00 0.00 55 1012.4
20260905165455 35 185 0.0 1.6 0.00 0.00 0.00 54 1012.8
20260905164950 35 189 0.0 0.0 0.00 0.00 0.00 55 1013.0
20260905164449 35 182 0.0 1.6 0.00 0.00 0.00 59 1013.0
20260905163944 35 174 4.8 4.8 0.00 0.00 0.00 55 1013.0
20260905163441 35 167 1.6 1.6 0.00 0.00 0.00 57 1013.1
20260905162937 34 40 1.6 3.2 0.00 0.00 0.00 61 1013.2
20260905162432 33 177 1.6 3.2 0.00 0.00 0.00 62 1013.2
20260905161927 33 178 1.6 1.6 0.00 0.00 0.00 62 1013.3
20260905161426 33 184 1.6 1.6 0.00 0.00 0.00 63 1013.2
20260905160924 34 178 0.0 0.0 0.00 0.00 0.00 62 1013.3
20260905160419 34 216 1.6 1.6 0.00 0.00 0.00 63 1013.5
20260905155918 34 193 0.0 0.0 0.00 0.00 0.00 61 1013.5
20260905155418 34 196 0.0 0.0 0.00 0.00 0.00 62 1013.6
20260905154917 33 91 3.2 4.8 0.00 0.00 0.00 64 1013.5
20260905154413 34 193 0.0 0.0 0.00 0.00 0.00 64 1013.6
20260905153908 33 195 0.0 0.0 0.00 0.00 0.00 64 1013.5
20260905153404 33 195 0.0 0.0 0.00 0.00 0.00 69 1013.5
20260905152904 32 185 0.0 1.6 0.00 0.00 0.00 67 1013.4
20260905152403 33 181 0.0 0.0 0.00 0.00 0.00 70 1013.4
20260905151859 32 187 0.0 1.6 0.00 0.00 0.00 71 1013.7
20260905151355 33 178 0.0 1.6 0.00 0.00 0.00 70 1013.8
20260905150855 32 197 0.0 0.0 0.00 0.00 0.00 72 1013.5
20260905150354 32 192 0.0 0.0 0.00 0.00 0.00 72 1013.8
20260905145851 31 182 0.0 0.0 0.00 0.00 0.00 76 1013.7
20260905145346 31 83 1.6 3.2 0.00 0.00 0.00 73 1013.6
20260905144845 31 190 0.0 0.0 0.00 0.00 0.00 73 1013.8
20260905144341 31 183 0.0 1.6 0.00 0.00 0.00 78 1013.8
20260905143839 31 196 1.6 1.6 0.00 0.00 0.00 74 1013.8
20260905143334 31 172 1.6 1.6 0.00 0.00 0.00 75 1013.8
20260905142833 31 193 0.0 0.0 0.00 0.00 0.00 75 1013.7
20260905142327 31 199 1.6 1.6 0.00 0.00 0.00 74 1013.7
20260905141823 30 169 1.6 1.6 0.00 0.00 0.00 76 1013.8
20260905141324 30 159 1.6 1.6 0.00 0.00 0.00 77 1013.7
20260905140819 30 137 3.2 3.2 0.00 0.00 0.00 76 1013.5
20260905140319 30 190 0.0 0.0 0.00 0.00 0.00 79 1013.8
20260905135818 30 189 3.2 4.8 0.00 0.00 0.00 78 1013.7
20260905135314 30 199 0.0 1.6 0.00 0.00 0.00 79 1013.9
20260905134810 30 193 0.0 0.0 0.00 0.00 0.00 79 1013.7
20260905134308 29 147 1.6 1.6 0.00 0.00 0.00 79 1013.7
20260905133802 29 194 1.6 1.6 0.00 0.00 0.00 80 1013.9
20260905133258 28 189 1.6 1.6 0.00 0.00 0.00 81 1014.0
20260905132757 28 188 1.6 3.2 0.00 0.00 0.00 81 1014.0
20260905132252 28 193 0.0 0.0 0.00 0.00 0.00 82 1013.9
20260905131747 28 196 0.0 1.6 0.00 0.00 0.00 82 1014.1
20260905131243 28 188 0.0 0.0 0.00 0.00 0.00 83 1013.9
20260905130737 28 191 0.0 0.0 0.00 0.00 0.00 83 1014.0
20260905130237 28 184 0.0 0.0 0.00 0.00 0.00 84 1014.0
20260905125732 27 189 0.0 0.0 0.00 0.00 0.00 85 1013.8
20260905125227 27 190 0.0 1.6 0.00 0.00 0.00 85 1014.0
20260905124724 27 156 0.0 0.0 0.00 0.00 0.00 87 1014.1
20260905124220 26 309 1.6 3.2 0.00 0.00 0.00 87 1014.2
20260905123720 26 187 0.0 1.6 0.00 0.00 0.00 89 1014.0
20260905123217 27 193 1.6 1.6 0.00 0.00 0.00 88 1014.0
20260905122716 26 187 0.0 0.0 0.00 0.00 0.00 88 1014.0
20260905122211 26 187 0.0 0.0 0.00 0.00 0.00 88 1014.1
20260905121706 26 187 0.0 0.0 0.00 0.00 0.00 90 1014.1
20260905121202 25 186 0.0 0.0 0.00 0.00 0.00 95 1014.0
20260905120701 25 184 0.0 0.0 0.00 0.00 0.00 95 1014.0
20260905120156 24 187 0.0 0.0 0.00 0.00 0.00 96 1013.9
20260905115655 24 184 0.0 0.0 0.00 0.00 0.00 96 1014.1
20260905115151 23 185 0.0 0.0 0.00 0.00 0.00 97 1013.8
20260905114650 23 187 0.0 0.0 0.00 0.00 0.00 97 1013.8
20260905114148 23 185 0.0 0.0 0.00 0.00 0.00 98 1013.6
20260905113643 23 184 0.0 0.0 0.00 0.00 0.00 98 1013.6
20260905113139 23 185 0.0 0.0 0.00 0.00 0.00 99 1013.8
20260905112633 23 188 0.0 0.0 0.00 0.00 0.00 99 1013.6
20260905112129 23 185 0.0 0.0 0.00 0.00 0.00 99 1013.9
20260905111623 23 186 0.0 0.0 0.00 0.00 0.00 99 1013.4
20260905111123 23 182 0.0 0.0 0.00 0.00 0.00 99 1013.5
20260905110622 23 186 0.0 0.0 0.00 0.00 0.00 99 1013.1
20260905110117 22 185 0.0 0.0 0.00 0.00 0.00 99 1013.0
20260905105617 22 189 0.0 0.0 0.00 0.00 0.00 99 1012.9
20260905105116 23 189 0.0 0.0 0.00 0.00 0.00 99 1013.0
20260905104612 22 178 0.0 0.0 0.00 0.00 0.00 99 1013.0
20260905104112 23 184 0.0 0.0 0.00 0.00 0.00 98 1012.6
20260905103608 23 186 0.0 0.0 0.00 0.00 0.00 98 1012.6
20260905103104 23 186 0.0 0.0 0.00 0.00 0.00 98 1012.5
20260905102559 23 185 0.0 0.0 0.00 0.00 0.00 98 1012.4
20260905102056 23 185 0.0 0.0 0.00 0.00 0.00 98 1012.4
20260905101554 23 185 0.0 0.0 0.00 0.00 0.00 97 1012.9
20260905101053 23 187 0.0 0.0 0.00 0.00 0.00 97 1012.5
20260905100549 23 186 0.0 0.0 0.00 0.00 0.00 97 1012.6
20260905100049 23 188 0.0 0.0 0.00 0.00 0.00 96 1012.6
20260905095543 23 189 0.0 0.0 0.00 0.00 0.00 96 1012.8
20260905095039 23 181 0.0 0.0 0.00 0.00 0.00 96 1012.6
20260905094534 23 177 0.0 0.0 0.00 0.00 0.00 95 1012.9
20260905094033 23 185 0.0 0.0 0.00 0.00 0.00 95 1012.4
20260905093533 23 186 0.0 0.0 0.00 0.00 0.00 94 1012.6
20260905093030 23 185 0.0 0.0 0.00 0.00 0.00 94 1012.5
20260905092529 24 186 0.0 0.0 0.00 0.00 0.00 94 1012.6
20260905092025 24 186 0.0 0.0 0.00 0.00 0.00 93 1012.6
20260905091525 24 185 0.0 0.0 0.00 0.00 0.00 93 1012.5
20260905091025 24 188 0.0 0.0 0.00 0.00 0.00 93 1012.6
20260905090524 25 188 0.0 0.0 0.00 0.00 0.00 92 1012.8
20260905090020 25 187 0.0 0.0 0.00 0.00 0.00 92 1012.9
20260905085518 25 182 0.0 0.0 0.00 0.00 0.00 92 1012.6
20260905085015 25 184 0.0 0.0 0.00 0.00 0.00 90 1012.5
20260905084515 25 184 0.0 0.0 0.00 0.00 0.00 90 1012.6
20260905084015 25 187 0.0 0.0 0.00 0.00 0.00 90 1012.8
20260905083509 25 189 0.0 0.0 0.00 0.00 0.00 91 1012.6